Location: Six Mile Lake
(44.9000°N, 79.7170°W)
Time: 13:56:29
(UTC-04:00)

EO-79 - Pass Details

Date: 30 June 2022
Orbit: 588 x 603 km, 98.0° (Epoch: 18 August)

Event Time Altitude Azimuth Distance (km) Brightness Sun altitude
Rises 03:13:07 0° 11° (N) 2,854 ? -17.4°
Reaches altitude 10° 03:15:17 10° 10° (N) 1,950 ? -17.2°
Maximum altitude 03:19:31 76° 285° (WNW) 624 ? -16.9°
Enters shadow 03:21:22 33° 205° (SSW) 1,019 ? -16.7°
